Current weather by "City, St" or "zip code"  
 

Current Conditions: Ainsworth Regional Airport, NE

Fair


50.0 F

Last Updated on Oct 29 2020, 6:55 pm CDT
Humidity: 63%
Wind Speed: N 0.0 mph
Barometer 29.97 in
Dewpoint: 38.3 F
Visibility: 10.00 mi
Precip: --
Heat Index: NA
Wind Chill: NA
Current conditions at:

Ainsworth Regional Airport, NE (KANW)

Lat: 42.57484 Lon: 99.99832

Local Radar Image active severe weather and emergency alerts image image weather storm and storm spotter reports image weather observation monitoring service image
Local
Radar
Active
Alerts
Storm Reports Obs
Monitoring

Sign-up For Email & Text Message Weather Alert Notification Services



Advertise Here

Observation History for Ainsworth Regional Airport, NE


Time Wind
(mph)
Vis
(mi)
Weather Precip (in) Temperature (F) Relative
Humidity
Wind
Chill
(F)
Heat
Index
(F)
Pressure
Air Dwpt altimeter
(in)
sea level
(mb)
Rmks
6:55 pm CDT N 0.0 10.00 Fair -- 50.0 38.3 63% NA NA 29.97 M
5:55 pm CDT S 4.6 10.00 Fair -- 59.0 39.7 49% 59 NA 29.97 M
4:55 pm CDT S 11.5 10.00 Fair -- 61.0 39.4 44% 59 NA 29.97 M
3:55 pm CDT S 10.4 10.00 Fair -- 60.0 39.4 46% 58 NA 29.98 M
3:35 pm CDT S 13.8 10.00 Fair -- 60.0 39.2 46% 58 NA 29.99 M
2:55 pm CDT S 10.4 10.00 Fair -- 57.0 38.3 49% 55 NA 30.01 M
1:55 pm CDT S 11.5 G 17.3 10.00 Mostly Cloudy -- 51.0 36.9 60% 47 NA 30.05 M
12:55 pm CDT S 12.7 G 17.3 10.00 Overcast -- 48.0 35.8 63% 43 NA 30.09 M
11:55 am CDT S 9.2 10.00 Overcast -- 44.0 36.0 73% 39 NA 30.11 M
10:55 am CDT SE 6.9 10.00 Overcast -- 40.0 37.2 89% 35 NA 30.13 M
10:35 am CDT S 3.5 10.00 Overcast -- 38.0 36.0 92% NA NA 30.15 M
9:55 am CDT S 3.5 7.00 Overcast -- 34.0 33.8 98% NA NA 30.14 M
9:35 am CDT N 0.0 5.00 Fog/Mist -- 33.0 32.4 97% NA NA 30.15 M
8:55 am CDT SW 3.5 10.00 Overcast -- 31.0 30.0 98% NA NA 30.14 M
7:55 am CDT N 0.0 10.00 Fair -- 29.0 28.0 98% NA NA 30.15 M
6:55 am CDT W 4.6 10.00 Fair -- 28.0 27.3 98% 23 NA 30.15 M
5:55 am CDT N 0.0 10.00 Fair -- 27.0 26.6 97% NA NA 30.15 M
4:55 am CDT W 4.6 10.00 Fair -- 29.0 28.8 97% 24 NA 30.16 M
3:55 am CDT W 5.8 10.00 Fair -- 30.0 29.1 96% 24 NA 30.17 M
2:55 am CDT W 3.5 10.00 Fair -- 29.0 28.4 96% NA NA 30.18 M
2:35 am CDT W 3.5 10.00 Fair -- 28.0 27.5 96% NA NA 30.17 M
1:15 am CDT W 4.6 10.00 Mostly Cloudy -- 31.0 29.7 96% 26 NA 30.18 M
12:55 am CDT W 5.8 10.00 Partly Cloudy -- 30.0 29.3 96% 24 NA 30.19 M
11:55 pm CDT W 3.5 10.00 Mostly Cloudy -- 32.0 31.3 96% NA NA 30.18 M

Regional Weather Observation


Valentine, Miller Field, NE (KVTN)

Fair
59.0 F

Winner, Bob Wiley Field Airport, SD (KICR)

A Few Clouds
44.0 F

Thedford, Thomas County Airport, NE (KTIF)

Fair
57.0 F

Chamberlain, Chamberlain Municipal Airport, SD (K9V9)

Overcast
41.0 F

ONeill / Baker Field, NE (KONL)

Fair
45.0 F

Broken Bow, Broken Bow Municipal Airport, NE (KBBW)

Fair
50.0 F